Regional Weather Roundup
Issued by NWS

Home | Current Version | Previous Version | Graphics & Text | Print | Product List | Glossary On
Versions: 1 2 3 4 5 6 7 8 9 10 11 12 13 14 15 16 17 18 19 20 21 22 23 24 25 26 27 28 29 30 31 32 33 34 35 36 37 38 39 40 41 42 43 44 45 46 47 48 49 50
000
ASUS43 KMKX 290000
RWRWI

WISCONSIN REGIONAL WEATHER ROUNDUP
NATIONAL WEATHER SERVICE MILWAUKEE/SULLIVAN WI
700 PM CDT THU APR 28 2016

NOTE: "FAIR" INDICATES FEW OR NO CLOUDS BELOW 12,000 FEET WITH NO
SIGNIFICANT WEATHER AND/OR OBSTRUCTIONS TO VISIBILITY.

WIZ001-002-006>008-014>016-023>028-290100-
NORTHWEST WISCONSIN

CITY           SKY/WX    TMP DP  RH WIND       PRES   REMARKS
SUPERIOR ARPT  CLOUDY    38  32  81 NE8       30.13S WCI  32
ASHLAND        SUNNY     41  29  62 NE9       30.13S
6HR MIN TEMP:  41; 6HR MAX TEMP:  47;

HAYWARD        PTSUNNY   45  26  47 NE13      30.07S
6HR MIN TEMP:  45; 6HR MAX TEMP:  54;

SIREN          CLOUDY    48  25  40 NE9       30.07R
CUMBERLAND     CLOUDY    45  34  65 W6        30.05R
RICE LAKE      CLOUDY    46  33  61 S8        30.06R
CHETEK         CLOUDY    43  36  75 SW5       30.04S
LADYSMITH      CLOUDY    49  32  52 SW8       30.05R
EAU CLAIRE     RAIN      41  38  89 E5        30.06R FOG
MENOMONIE      RAIN      41  40  99 NE6       30.08R
NEW RICHMOND   LGT RAIN  41  36  81 CALM      30.07S
OSCEOLA        RAIN      42  38  86 CALM      30.10R
$$

WIZ003>005-009-010-017-018-290100-
NORTH CENTRAL WISCONSIN

CITY           SKY/WX    TMP DP  RH WIND       PRES   REMARKS
MANITOWISH WTR PTCLDY    51  31  45 N6        30.02R
ARBOR VITAE    CLEAR     57  23  27 E6        30.01R
WOODRUFF       CLEAR     57  23  27 E6        30.01R
RHINELANDER    CLOUDY    51  21  30 SE10      30.02R
6HR MIN TEMP:  49; 6HR MAX TEMP:  56;

EAGLE RIVER    CLOUDY    54  20  27 E6        30.01S
LAND O LAKES   CLOUDY    54  25  33 NE7       30.02S
PHILLIPS       CLOUDY    53  24  32 E6        30.00S
TOMAHAWK       CLOUDY    49  23  35 SE3       30.02R
MEDFORD        CLOUDY    39  35  83 S6        30.03S
MERRILL        CLOUDY    45  32  61 S8        30.05S
$$

WIZ029-030-035-036-043>047-290100-
CENTRAL WISCONSIN

CITY           SKY/WX    TMP DP  RH WIND       PRES   REMARKS
WAUSAU         LGT RAIN  42  36  79 E10       30.04R
6HR MIN TEMP:  42; 6HR MAX TEMP:  48; 6HR PCP:  0.03;

MOSINEE        LGT RAIN  39  37  93 E8        30.05R WCI  34
MARSHFIELD     LGT RAIN  41  35  79 NE6       30.03R
6HR MIN TEMP:  39; 6HR MAX TEMP:  41; 6HR PCP:  0.03;

STEVENS POINT  CLOUDY    40  33  78 NE8       30.04R WCI  34
WAUPACA        DRIZZLE   44  33  63 E9        30.04R
WAUTOMA        LGT RAIN  41  34  76 NE6       30.02F
6HR MIN TEMP:  39; 6HR MAX TEMP:  41;

WISC RAPIDS    CLOUDY    41  37  86 N7        30.04S
6HR MIN TEMP:  38; 6HR MAX TEMP:  41; 6HR PCP:  0.13;

CAMP DOUGLAS   CLOUDY    41  41 100 E8        30.03R
$$

WIZ011>013-019>022-031-037>040-048>050-290100-
NORTHEAST WISCONSIN

CITY           SKY/WX    TMP DP  RH WIND       PRES   REMARKS
ANTIGO         CLOUDY    45  25  45 E10G18    30.04R
SHAWANO        DRIZZLE   43  34  70 NE8       30.07R
OCONTO         CLOUDY    43  32  66 E5        30.06R
STURGEON BAY   CLOUDY    43  28  56 NE7       30.08R
6HR MIN TEMP:  43; 6HR MAX TEMP:  45;

GREEN BAY      CLOUDY    44  33  65 NE7       30.05R
6HR MIN TEMP:  42; 6HR MAX TEMP:  48; 6HR PCP:  0.01;

MANITOWOC      NOT AVBL
APPLETON       CLOUDY    43  30  61 E6        30.03R
CLINTONVILLE   CLOUDY    43  32  65 NE9       30.05S
OSHKOSH        CLOUDY    42  36  79 E10       30.03R
6HR MIN TEMP:  41; 6HR MAX TEMP:  45;

$$

WIZ032>034-041-042-053>061-290100-
SOUTHWEST WISCONSIN

CITY           SKY/WX    TMP DP  RH WIND       PRES   REMARKS
LA CROSSE      LGT RAIN  42  39  89 E6        30.03R
6HR MIN TEMP:  42; 6HR MAX TEMP:  43; 6HR PCP:  0.02;

SPARTA         CLOUDY    40  39  97 E7        30.04R FOG
VIROQUA        CLOUDY    39  38  97 E9        30.00R WCI  33
BOSCOBEL       LGT RAIN  43  39  86 E6        30.01R
6HR MIN TEMP:  43; 6HR MAX TEMP:  46; 6HR PCP: TRACE;

PRAIRIE DU CHI CLOUDY    43  38  85 E5        29.99S FOG
PLATTEVILLE    CLOUDY    43  42  96 NE8       29.97R
$$

WIZ056-057-062-063-064-067-068-290100-
SOUTH CENTRAL WISCONSIN

CITY           SKY/WX    TMP DP  RH WIND       PRES   REMARKS
REEDSBURG      CLOUDY    39  39  99 E7        30.01R FOG     WCI  34
BARABOO/DELLS  CLOUDY    39  38  94 E8        30.01R FOG     WCI  34
LONE ROCK      NOT AVBL
MINERAL POINT  CLOUDY    41  41 100 NE9       29.98R FOG
MADISON        CLOUDY    40  36  86 E8        30.00S WCI  34
6HR MIN TEMP:  40; 6HR MAX TEMP:  42; 6HR PCP: TRACE;

MIDDLETON      CLOUDY    41  38  89 E8        30.00S
WATERTOWN      CLOUDY    40  37  92 E7        30.00R WCI  35
MONROE         CLOUDY    41  39  93 NE9       29.97R FOG
JANESVILLE     CLOUDY    43  41  93 E10       29.98R FOG
$$

WIZ051-052-058>065-066-070>072-290100-
SOUTHEAST WISCONSIN

CITY           SKY/WX    TMP DP  RH WIND       PRES   REMARKS
MILWAUKEE      CLOUDY    40  37  89 NE13      30.00S WCI  32
6HR MIN TEMP:  39; 6HR MAX TEMP:  41;

WAUKESHA       CLOUDY    37  36  93 NE10      30.01R WCI  30
MILWAUKEE/TIMM CLOUDY    39  36  87 NE9       30.01S WCI  33
RACINE         CLOUDY    41  37  86 NE12      30.00S
6HR MIN TEMP:  40; 6HR MAX TEMP:  42;

BURLINGTON     CLOUDY    38  38  97 NE7       29.98S FOG     WCI  33
KENOSHA        CLOUDY    41  38  89 NE10      29.98S
6HR MIN TEMP:  40; 6HR MAX TEMP:  44;

FOND DU LAC    LGT RAIN  40  37  89 E12       30.03R FOG     WCI  33
6HR MIN TEMP:  40; 6HR MAX TEMP:  44; 6HR PCP:  0.01;

SHEBOYGAN      CLOUDY    41  36  82 E9        30.03R
6HR MIN TEMP:  38; 6HR MAX TEMP:  42; 6HR PCP: TRACE;

WEST BEND      CLOUDY    37  36  93 E12       30.01R WCI  30
JUNEAU         CLOUDY    40  36  85 NE7       30.02R WCI  35
$$

LSZ147-162-290100-
LAKE SUPERIOR

STATION/POSITION TIME  TEMP    WIND        PRES    WAVE
                       AIR SEA DIR/SP/G            HT/PER
                 (UTC) (F)     (DEG/KT/KT) (MB)    (FT/S)
W MID LAKE BUOY  2250   38 36   60/ 14/ 16 1020.8R   3/ 5
DEVILS ISLAND    2300   38      80/ 13/ 14 1021.1R
SAXON HARBOR     2300   39      30/ 11/ 15 1019.3
$$

LMZ867-665-643>646-290100-
LAKE MICHIGAN

STATION/POSITION TIME  TEMP    WIND        PRES    WAVE
                       AIR SEA DIR/SP/G            HT/PER
                 (UTC) (F)     (DEG/KT/KT) (MB)    (FT/S)
CHAMBERS ISLAND  2300   44      50/  5/  7 1017.9S
N MID LAKE BUOY  2250   40 38   50/ 10/ 12 1018.1S   2/ 4
NORTHPORT PIER   2300   41      60/  9/ 10 1017.9S
KEWAUNEE LAKESHO 2300   41                 1016.7S
SHEBOYGAN LAKESH 2300   39      50/ 10/ 10 1017.7R
PORT WASHINGTON  2340   42      50/ 13/ 16 1017.3R
S MID LAKE BUOY  2250   41 40   60/ 12/ 12 1014.9R   2/ 4
KENOSHA   LAKESH 2300   40      50/ 14/ 19 1015.2R
$$

TC  - TEMPERATURE IN CELSIUS
VSB - VISIBILITY IN STATUTE MILES
WCI - WIND CHILL INDEX
HX  - HEAT INDEX





USA.gov is the U.S. government's official web portal to all federal, state and local government web resources and services.